This demonstration page uses our WeatherBlox Daily Observations layout. Learn more.

39.29038, -76.61219

Hourly Observations for July 24, 2015

Temp ( °F °C ) Dew Point ( °F °C ) Humidity (%) Winds ( mph kmh ) Pressure ( in mb ) Visibility ( mi km ) Precip ( " mm )
12:54 am 00:54 Mostly Clear 69 20.4 44 6.9 42 42 undefined N/A 29.9 1012 N/A 0 0
1:54 am 01:54 Cloudy 78 25.6 74 23.3 87 87 undefined N/A 29.93 1014 N/A 0 0
2:54 am 02:54 undefined 71 21.7 57 13.9 61 61 undefined N/A 29.96 1014 N/A 0 0
3:54 am 03:54 undefined 71 21.7 55 12.8 57 57 undefined N/A 29.95 1014 N/A 0 0
4:54 am 04:54 Cloudy 70 21.1 55 12.8 59 59 undefined N/A 29.96 1014 N/A 0 0
5:54 am 05:54 undefined 70 21.1 55 12.8 59 59 undefined N/A 29.96 1015 N/A 0 0
6:54 am 06:54 Cloudy 73 22.8 54 12.2 51 51 undefined N/A 29.98 1015 N/A 0 0
7:54 am 07:54 undefined 74 23.3 55 12.8 52 52 undefined N/A 29.98 1015 N/A 0 0
8:54 am 08:54 undefined 77 25 54 12.2 45 45 undefined N/A 29.99 1016 N/A 0 0
9:54 am 09:54 undefined 79 26.1 50 10 36 36 undefined N/A 29.98 1015 N/A 0 0
10:54 am 10:54 Mostly Cloudy 88 31.1 80 26.7 77 77 undefined N/A 30.01 1016 N/A 0 0
11:54 am 11:54 undefined 82 27.8 50 10 33 33 undefined N/A 29.99 1016 N/A 0 0
12:54 pm 12:54 Mostly Sunny 82 27.8 49 9.4 32 32 undefined N/A 29.98 1015 N/A 0 0
1:54 pm 13:54 Cloudy 84 28.9 52 11.1 33 33 undefined N/A 29.96 1015 N/A 0 0
2:54 pm 14:54 undefined 84 28.9 51 10.6 32 32 undefined N/A 29.95 1014 N/A 0 0
3:54 pm 15:54 Mostly Cloudy 85 29.4 52 11.1 32 32 undefined N/A 29.93 1014 N/A 0 0
4:54 pm 16:54 Mostly Cloudy 76 24.4 72 22.2 88 88 undefined N/A 30.94 1048 N/A 0 0.0254
5:54 pm 17:54 Cloudy 84 28.9 54 12.2 36 36 undefined N/A 29.93 1014 N/A 0 0
6:54 pm 18:54 Mostly Cloudy 84 28.9 54 12.2 36 36 undefined N/A 29.94 1014 N/A 0 0
7:54 pm 19:54 undefined 83 28.3 54 12.2 37 37 undefined N/A 29.95 1014 N/A 0 0
8:54 pm 20:54 Cloudy 82 27.8 56 13.3 41 41 undefined N/A 29.97 1015 N/A 0 0
9:54 pm 21:54 Mostly Clear 69 20.6 63 17.2 81 81 undefined N/A 29.97 1015 N/A 0 0
10:54 pm 22:54 undefined 79 26.1 57 13.9 47 47 undefined N/A 29.98 1015 N/A 0 0
11:54 pm 23:54 undefined 77 25 57 13.9 50 50 undefined N/A 29.97 1015 N/A 0 0

Powered by AerisWeather